This is the latest recevied weather packets stored in our database for station/object W2GLD-13. If no packets are shown the sender has not sent any weather packets the latest 10 day(s).
| Time | Temp. | Humidity | Pressure | Rain* | Wind** | Luminosity | Snow |
|---|---|---|---|---|---|---|---|
| 1777303805 | 15.56° C | 63% | 1015.2 hPa | 0 mm | - | - | - |
| 1777302906 | 15.56° C | 63% | 1015.2 hPa | 0 mm | - | - | - |
| 1777302006 | 13.33° C | 65% | 1017 hPa | 0 mm | - | - | - |
| 1777301106 | 13.33° C | 65% | 1017 hPa | 0 mm | - | - | - |
| 1777300206 | 13.33° C | 65% | 1017 hPa | 0 mm | - | - | - |
| 1777299305 | 13.33° C | 65% | 1017 hPa | 0 mm | - | - | - |
| 1777298405 | 10.56° C | 77% | 1017.1 hPa | 0 mm | - | - | - |
| 1777297505 | 10.56° C | 77% | 1017.1 hPa | 0 mm | - | - | - |
| 1777296605 | 10.56° C | 77% | 1017.1 hPa | 0 mm | - | - | - |
| 1777295705 | 10.56° C | 77% | 1017.1 hPa | 0 mm | - | - | - |
| 1777294806 | 8.33° C | 84% | 1016.9 hPa | 0 mm | - | - | - |
| 1777293906 | 8.33° C | 84% | 1016.9 hPa | 0 mm | - | - | - |
| 1777293006 | 8.33° C | 84% | 1016.9 hPa | 0 mm | - | - | - |
| 1777292106 | 8.33° C | 84% | 1016.9 hPa | 0 mm | - | - | - |
| 1777291205 | 7.78° C | 86% | 1017.7 hPa | 0 mm | - | - | - |
| 1777290305 | 7.78° C | 86% | 1017.7 hPa | 0 mm | - | - | - |
| 1777289405 | 7.78° C | 86% | 1017.7 hPa | 0 mm | - | - | - |
| 1777288505 | 7.78° C | 86% | 1017.7 hPa | 0 mm | - | - | - |
| 1777287605 | 8.33° C | 82% | 1017.5 hPa | 0 mm | - | - | - |
| 1777286706 | 8.33° C | 82% | 1017.5 hPa | 0 mm | - | - | - |
| 1777285806 | 8.33° C | 82% | 1017.5 hPa | 0 mm | - | - | - |
| 1777284906 | 8.33° C | 82% | 1017.5 hPa | 0 mm | - | - | - |
| 1777284005 | 8.33° C | 80% | 1017.7 hPa | 0 mm | - | - | - |
| 1777283105 | 8.33° C | 80% | 1017.7 hPa | 0 mm | - | - | - |
| 1777282205 | 8.33° C | 80% | 1017.7 hPa | 0 mm | - | - | - |
* Rain latest hour (hover to see other rain measurements)
** Current wind speed in m/s (hover to see current wind gust speed)